Torna al catalogo

STARLINK-11325

AttivoComunicazioniVLEO
NORAD 61538·PAYLOAD·🇺🇸 United States

Lanciato Oct 15, 2024 da Vandenberg Space Force Base

Loading…

Prossimi Passaggi (prossime 24 ore)

TLE

AggiornatoSource: CelesTrak SupGP

Epoca: Sep 14, 2026, 21:09 UTC

1 61538C 24184G   26257.88173611  .00064757  00000+0  53331-3 0  2572
2 61538  53.1569  23.3617 0001089  79.3252 349.6782 15.69682366    14

Traccia STARLINK-11325 in tempo reale con AllMySat

Download on the App Store